COSMOS 2527 (756) (43508 NORAD) Tracking and Keplerian Element Data

This shows tracking and keplerian element data for the satellite.

Feedback or suggestion? Click here.




ElementValue
Catalog43508
NameCOSMOS 2527 (756)
Epoch Orbit659
Epoch Day112.35774017
Epoch Year2019
RAAN161.3712
Inclination64.8319
Eccentricity0.0008296
Argument of Perigee240.6536
Mean Anonmoly203.4941
Mean Motion2.13102674
Decay Rate3.1E-07
L11 43508U 18053A 19112.35774017 .00000031 00000-0 00000+0 0 9998
L22 43508 64.8319 161.3712 0008296 240.6536 203.4941 2.13102674 6594

Live tracking and technical data element details for COSMOS 2527 (756) (NORAD 43508). COSMOS 2527 (756) can be tracked NOW for your location showing map with azimuth and elevation plus other details from your city location.

Track the satellite on the map from your city or location and see movement details for azimuth, elevation, latitude, longitude, range, height, and movement on the map or in text.







IsCatalogInMostPopularTable: catalog: 43508, numindb: 117
Update: records affected: 1



GetName: 43508 COSMOS 2527 (756)

Hit Count: updated at: Tue, 23 Apr 2019 19:50:28 GMT